Location: Drawsko Pomorskie
(53.5317°N, 15.8111°E)
Time: 01:16:52
(UTC+01:00)

Envisat - Pass Details

Date: 24 October 2019
Orbit: 764 x 766 km, 98.1° (Epoch: 11 November)

Event Time Altitude Azimuth Distance (km) Brightness Sun altitude
Rises 20:23:28 0° 214° (SW) 3,225 6.5 -24.6°
Reaches altitude 10° 20:26:38 10° 235° (SW) 2,304 6.0 -25.1°
Maximum altitude 20:29:47 16° 274° (W) 1,904 5.9 -25.5°
Drops below altitude 10° 20:32:57 10° 313° (NW) 2,314 6.3 -26.0°
Sets 20:36:10 0° 334° (NNW) 3,246 6.8 -26.4°
